[Date Prev][Date Next][Thread Prev][Thread Next][Date Index][Thread Index]

[jamsat-news:1090] jas2info #137



=========================   最新情報   ==============================

        Last updated :Thu.20-May.-1999 21:35 (JST) #137

====================================================================
   
     衛星情報 FOシリーズの軌道要素、テレメトリ、QSOの状況等を
   まとめてみました.

  1)  FO−29(ふじ3号)は、5月20日(木)13:15(JST)の
     パスではJARLのホームページのJAS−2「最新情報」のとうりJD
     ディジタルモード1200PSKのパケットで運用されていました. 
       
 ■ 軌道要素1:「jamsat−keps:887」より
              SB KEPS @ AMSAT  $ORB99127.N
              Line Orbital Elements 99127.AMSAT

  HR AMSAT ORBITAL ELEMENTS FOR AMATEUR SATELLITES IN NASA FORMAT
  FROM WA5QGD FORT WORTH,TX May 7, 1999
  SEND SUBSCRIBE/UNSUBSCRIBE TO majordomo@amsat.org ONLY
  BID: ORB99127.N

 DECODE 2-LINE ELSETS WITH THE FOLLOWING KEY:
 1 AAAAAU 00  0  0 BBBBB.BBBBBBBB  .CCCCCCCC  00000-0  00000-0 0  DDDZ
 2 AAAAA EEE.EEEE FFF.FFFF GGGGGGG HHH.HHHH III.IIII JJ.JJJJJJJJKKKKKZ
 KEY: A-CATALOGNUM B-EPOCHTIME C-DECAY D-ELSETNUM E-INCLINATION F-RAAN
 G-ECCENTRICITY H-ARGPERIGEE I-MNANOM J-MNMOTION K-ORBITNUM Z-CHECKSUM

 TO ALL RADIO AMATEURS BT

  FO-29
  1 24278U 96046B   99125.38292513  .00000019  00000-0  56786-4 0  2435
  2 24278  98.5574  82.2568 0351111 204.9163 153.4662 13.52667251134026
   
 ■ 軌道要素2:「jamsat−keps:888」より
                 SB KEPS @ AMSAT  $ORB99127.O
                 Orbital Elements  99127.OSCAR

  HR AMSAT ORBITAL ELEMENTS FOR OSCAR SATELLITES
  FROM WA5QGD FORT WORTH,TX May 7, 1999
  END SUBSCRIBE/UNSUBSCRIBE TO majordomo@amsat.org ONLY
  BID: ORB99127.O
  TO ALL RADIO AMATEURS BT

  Satellite: FO-29
  Catalog number: 24278
  Epoch time:      99125.38292513
  Element set:     243
  Inclination:       98.5574 deg
  RA of node:        82.2568 deg
  Eccentricity:    0.0351111
  Arg of perigee:   204.9163 deg
  Mean anomaly:     153.4662 deg
  Mean motion:   13.52667251 rev/day
  Decay rate:        1.9e-07 rev/day^2
  Epoch rev:           13402
  Checksum:              304
 -----------------------------------------------------------
  2)FO−29(ふじ3号)の 5月20日(木)のJDディジタルテレメトリの
    一部分は次のようになっていました.
 
  AS13604P   20may99
  JST   15:01 - 15:20 


cmd:8J1JCS>BEACON [05/20/99  15:04:05]:


JAS-2    '97/05/20 06:03:33


9C 03 03 08 00 FD 00 00 00 00


00 00 5B CA D8 76 4E 95 91 9F


AA 52 A8 01 B7 B4 B8 B9 B6 B7



8J1JCS>BEACON [05/20/99  15:04:06]:D5 02 00 09 00 00 7E 40 00 00


02 F7 00 4F 60 9F A4 81 79 7F


00 00 00 AC 82 B3 F7 00 00 00



8J1JCS>BEACON [05/20/99  15:04:07]:


User not connect.



8J1JCS>BEACON [05/20/99  15:06:05]:


JAS-2    '97/05/20 06:05:33


9C 03 63 08 00 FD 00 00 00 00


00 00 5B CB 14 83 60 94 91 B0


AA 52 A8 01 CC B4 B8 B8 B6 B7



8J1JCS>BEACON [05/20/99  15:06:06]:D5 02 00 09 00 00 7E 40 00 00


86 F6 F9 44 24 9A 9F 82 79 7F


00 00 00 AB 82 B3 F7 00 00 00



8J1JCS>BEACON [05/20/99  15:06:07]:


User not connect.



8J1JCS>BEACON [05/20/99  15:07:41]:9C 03 03 08 00 FD 00 00 00 00


00 00 5B CB 46 76 4A 95 91 9F


AA 52 A8 02 B8 B4 B8 B8 B6 B6



8J1JCS>BEACON [05/20/99  15:07:42]:D5 02 00 09 00 00 7E 40 00 00


3A F6 F5 3E 2B 97 9B 81 7A 80


00 00 00 AB 82 B3 F7 00 00 00



8J1JCS>BEACON [05/20/99  15:07:47]:9C 03 03 08 00 FD 00 00 00 00


00 00 5B CB 46 76 4F 95 92 9F


AA 52 A8 01 D0 B4 B8 B8 B6 B7



8J1JCS>BEACON [05/20/99  15:07:48]:95 02 00 09 00 00 7E 40 00 00


3A F6 F5 3E 2B 97 9B 81 7A 80


00 00 00 AB 82 B3 F7 00 00 00



8J1JCS>BEACON [05/20/99  15:07:49]:9C 03 03 08 00 FD 00 00 00 00


00 00 5B CB 46 77 4F 95 92 9F


AA 52 A8 01 A4 B4 B8 B8 B6 B6



8J1JCS>BEACON [05/20/99  15:07:51]:95 02 00 09 00 00 7E 40 00 00


3A F6 F5 3E 2B 97 9B 81 7A 80


00 00 00 AB 82 B3 F7 00 00 00



8J1JCS>BEACON [05/20/99  15:08:05]:


JAS-2    '97/05/20 06:07:33


9C 03 03 08 00 FD 00 00 00 00


00 00 5B CB 50 85 47 94 91 9E


AA 52 A8 01 B0 B4 B8 B8 B5 B6



8J1JCS>BEACON [05/20/99  15:08:06]:95 02 00 09 00 00 7E 40 00 00


3A F6 F3 3B 2B 94 98 81 7A 80


00 00 00 AA 82 B3 F7 00 00 00



8J1JCS>BEACON [05/20/99  15:08:07]:


User not connect.



8J1JCS>BEACON [05/20/99  15:08:50]:9C 03 03 08 00 FD 00 00 00 00


00 00 5B CB 64 76 4F 93 90 9E


AA 52 A8 01 CF B4 B8 B8 B6 B6



8J1JCS>BEACON [05/20/99  15:09:02]:9C 03 63 08 00 FD 00 00 00 00


00 00 5B CB 6E 7A 60 94 91 B0


AA 52 A9 01 E6 B4 B8 B8 B6 B6



8J1JCS>BEACON [05/20/99  15:09:03]:D5 02 00 09 00 00 7E 40 00 00


31 F6 EF 38 28 92 96 81 7A 80


00 00 00 AB 82 B3 F7 00 00 00



8J1JCS>BEACON [05/20/99  15:09:04]:9C 03 63 08 00 FD 00 00 00 00


00 00 5B CB 6E 7A 60 94 91 B0


AA 52 A9 01 E6 B4 B8 B8 B6 B7



8J1JCS>BEACON [05/20/99  15:09:05]:D5 02 00 09 00 00 7E 40 00 00


31 F6 EF 38 28 92 96 81 7A 80


00 00 00 AB 82 B3 F7 00 00 00



8J1JCS>BEACON [05/20/99  15:12:05]:


JAS-2    '97/05/20 06:11:33


9C 03 63 08 00 FD 00 00 00 00


00 00 5B CB C8 81 60 93 90 B0


AB 52 A8 01 CD B4 B8 B8 B5 B6



8J1JCS>BEACON [05/20/99  15:12:06]:D5 02 00 09 00 00 7E 40 00 00


A4 F6 F0 3C 38 91 95 82 7B 81


00 00 00 AA 81 B3 F7 00 00 00



8J1JCS>BEACON [05/20/99  15:12:07]:


User not connect.



8J1JCS>BEACON [05/20/99  15:13:30]:D5 02 00 09 00 00 7E 40 00 00


EB F6 F2 48 28 93 97 82 7B 81


00 00 00 A9 81 B3 F7 00 00 00



8J1JCS>BEACON [05/20/99  15:14:05]:9C 03 03 08 00 FD 00 00 00 00


00 00 5B CC 04 77 4E 95 91 9F


AA 52 A8 01 B8 B4 B7 B7 B5 B6



8J1JCS>BEACON [05/20/99  15:14:06]:95 02 00 09 00 00 7E 40 00 00


3E F7 F2 48 2A 93 97 82 7B 82


00 00 00 A9 81 B3 F7 00 00 00



8J1JCS>BEACON [05/20/99  15:14:07]:9C 03 03 08 00 FD 00 00 00 00


00 00 5B CC 04 78 4E 95 91 9F


AA 52 A8 01 D0 B4 B7 B7 B5 B6



8J1JCS>BEACON [05/20/99  15:14:08]:95 02 00 09 00 00 7E 40 00 00


3E F7 F2 48 2A 93 97 82 7B 82


00 00 00 A9 81 B3 F7 00 00 00



8J1JCS>BEACON [05/20/99  15:14:10]:


JAS-2    '97/05/20 06:13:339C 03 03 08 00 FD 00 00 00 00


00 00 5B CC 04 79 4D 95 91 9F


AA 52 A8 01 8A B4 B7 B7 B4 B6



8J1JCS>BEACON [05/20/99  15:14:11]:95 02 00 09 00 00 7E 40 00 00


3E F7 F2 48 2A 93 97 82 7B 82


00 00 00 A9 81 B3 F7 00 00 00



8J1JCS>BEACON [05/20/99  15:14:12]:


User not connect.



8J1JCS>BEACON [05/20/99  15:14:27]:9C 03 63 08 00 FD 00 00 00 00


00 00 5B CC 0E 84 5F 92 90 B0


AB 52 AA 01 E7 B4 B8 B7 B5 B6



8J1JCS>BEACON [05/20/99  15:14:28]:95 02 00 09 00 00 7E 40 00 00


3E F7 F5 53 2A 95 9A 82 7B 81


00 00 00 A9 81 B3 F7 00 00 00



8J1JCS>BEACON [05/20/99  15:14:35]:9C 03 03 08 00 FD 00 00 00 00


00 00 5B CC 13 7C 4C 95 91 9F


AA 52 A8 01 8D B4 B7 B7 B5 B6



8J1JCS>BEACON [05/20/99  15:14:36]:95 02 00 09 00 00 7E 40 00 00


3E F7 CB 53 2A 95 9A 82 7B 82


00 00 00 A9 81 B3 F7 00 00 00



8J1JCS>BEACON [05/20/99  15:14:40]:9C 03 63 08 00 FD 00 00 00 00
00 00 5B CC 13 82 60 94 91 B0


AB 52 A8 02 CE B4 B8 B7 B5 B6



8J1JCS>BEACON [05/20/99  15:14:41]:95 02 00 09 00 00 7E 40 00 00


3E F7 CB 53 2A 95 9A 82 7C 82


00 00 00 A9 81 B3 F7 00 00 00



8J1JCS>BEACON [05/20/99  15:14:42]:9C 03 63 08 00 FD 00 00 00 00


00 00 5B CC 13 82 60 94 91 B0


AA 52 A8 02 CD B4 B7 B7 B5 B6



8J1JCS>BEACON [05/20/99  15:14:43]:95 02 00 09 00 00 7E 40 00 00


3E F7 CB 53 2A 95 9A 82 7C 82


00 00 00 A9 81 B3 F7 00 00 00



8J1JCS>BEACON [05/20/99  15:14:44]:9C 03 63 08 00 FD 00 00 00 00


00 00 5B CC 13 82 60 94 91 B0


AA 52 A8 02 CD B4 B7 B7 B5 B6



8J1JCS>BEACON [05/20/99  15:14:46]:95 02 00 09 00 00 7E 40 00 00


3E F7 CB 53 2A 95 9A 82 7C 82


00 00 00 A9 81 B3 F7 00 00 00



8J1JCS>BEACON [05/20/99  15:15:07]:9C 03 03 08 00 FD 00 00 00 00


00 00 5B CC 22 77 4E 95 92 9F


AA 52 A8 01 80 B4 B7 B7 B5 B6



8J1JCS>BEACON [05/20/99  15:15:08]:95 02 00 09 00 00 7E 40 00 00


88 F7 F5 53 2D 95 9A 81 7C 82


00 00 00 A9 81 B3 F7 00 00 00



8J1JCS>BEACON [05/20/99  15:15:12]:9C 03 63 08 00 FD 00 00 00 00


00 00 5B CC 27 82 60 94 91 B0


AA 52 A8 01 CD B4 B7 B7 B5 B6



8J1JCS>BEACON [05/20/99  15:15:13]:D5 02 00 09 00 00 7E 40 00 00


88 F7 CD 5B 2D 98 9D 82 7B 82


00 00 00 A9 82 B3 F7 00 00 00



8J1JCS>BEACON [05/20/99  15:15:14]:9C 03 63 08 00 FD 00 00 00 00


00 00 5B CC 27 81 60 94 91 B0
AA 52 A8 02 CD B4 B7 B7 B5 B6



8J1JCS>BEACON [05/20/99  15:15:15]:D5 02 00 09 00 00 7E 40 00 00


88 F7 CD 5B 2D 98 9D 82 7B 82


00 00 00 A9 82 B3 F7 00 00 00



8J1JCS>BEACON [05/20/99  15:15:20]:95 02 00 09 00 00 7E 40 00 00


88 F7 CD 5B 2D 98 9D 83 7B 82


00 00 00 A9 81 B3 F7 00 00 00



8J1JCS>BEACON [05/20/99  15:15:21]:9C 03 63 08 00 FD 00 00 00 00


00 00 5B CC 27 7F 60 93 90 B0


AA 52 A8 02 DA B4 B7 B7 B5 B6



8J1JCS>BEACON [05/20/99  15:15:23]:95 02 00 09 00 00 7E 40 00 00


88 F7 CD 5B 2D 98 9D 83 7B 82


00 00 00 A9 81 B3 F7 00 00 00



8J1JCS>BEACON [05/20/99  15:15:24]:9C 03 63 08 00 FD 00 00 00 00


00 00 5B CC 27 7F 60 93 90 B0


AA 52 A8 02 DA B4 B7 B7 B5 B6



8J1JCS>BEACON [05/20/99  15:15:25]:95 02 00 09 00 00 7E 40 00 00


88 F7 CD 5B 2D 98 9D 83 7B 82


00 00 00 A9 81 B3 F7 00 00 00



8J1JCS>BEACON [05/20/99  15:15:29]:9C 03 63 08 00 FD 00 00 00 00


00 00 5B CC 2C 86 5F 92 8F B0


AB 52 A8 01 E7 B4 B7 B7 B5 B6



8J1JCS>BEACON [05/20/99  15:15:30]:95 02 00 09 00 00 7E 40 00 00


88 F7 F8 5B 2D 98 9D 82 7B 82


00 00 00 A8 80 B3 F7 00 00 00



8J1JCS>BEACON [05/20/99  15:15:35]:9C 03 03 08 00 FD 00 00 00 00


00 00 5B CC 31 7A 4C 94 91 9F


A9 52 A8 01 B9 B4 B7 B7 B4 B6



8J1JCS>BEACON [05/20/99  15:15:36]:95 02 00 09 00 00 7E 40 00 00


88 F7 CD 5B 2D 98 9D 82 7C 82


00 00 00 A8 81 B3 F7 00 00 00



8J1JCS>BEACON [05/20/99  15:15:38]:9C 03 03 08 00 FD 00 00 00 00


00 00 5B CC 31 79 4C 95 91 9F


AA 52 A8 01 B8 B4 B7 B7 B4 B6



8J1JCS>BEACON [05/20/99  15:15:39]:95 02 00 09 00 00 7E 40 00 00


88 F7 CD 5B 2D 98 9D 82 7C 82


00 00 00 A8 81 B3 F7 00 00 00



8J1JCS>BEACON [05/20/99  15:15:40]:9C 03 03 08 00 FD 00 00 00 00


00 00 5B CC 31 79 4C 95 91 9F


AA 52 A8 01 B8 B4 B7 B7 B4 B6



8J1JCS>BEACON [05/20/99  15:15:41]:95 02 00 09 00 00 7E 40 00 00


88 F7 CD 5B 2D 98 9D 82 7C 82


00 00 00 A8 81 B3 F7 00 00 00



8J1JCS>BEACON [05/20/99  15:15:45]:9C 03 63 08 00 FD 00 00 00 00


00 00 5B CC 36 80 60 93 91 B0

